Location: Bartlett
(35.2045°N, 89.8740°W)
Time: 16:49:41
(UTC+00:00)

Transit 4A - Pass Details

Date: 20 December 2025
Orbit: 867 x 974 km, 66.8° (Epoch: 14 January)

Event Time Altitude Azimuth Distance (km) Brightness Sun altitude
Rises 00:56:23 0° 261° (W) 3,443 12.3 -24.9°
Reaches altitude 10° 01:00:26 10° 289° (WNW) 2,511 10.9 -25.7°
Maximum altitude 01:02:58 13° 315° (NW) 2,315 10.3 -26.2°
Drops below altitude 10° 01:05:31 10° 342° (NNW) 2,526 10.2 -26.8°
Enters shadow 01:07:41 - 359° (N) 2,962 10.4 -27.2°
Sets 01:09:39 0° 10° (N) 3,484 - -27.6°
